Regional Weather Roundup
Issued by NWS

Home | Current Version | Previous Version | Graphics & Text | Print | Product List | Glossary On
Versions: 1 2 3 4 5 6 7 8 9 10 11 12 13 14 15 16 17 18 19 20 21 22 23 24 25 26 27 28 29 30 31 32 33 34 35 36 37 38 39 40 41 42 43 44 45 46 47 48 49 50
000
ASUS45 KSLC 281710
RWRUT

UTAH REGIONAL WEATHER ROUNDUP
NATIONAL WEATHER SERVICE SALT LAKE CITY UT
1000 AM MST FRI NOV 28 2014

UTZ001>011-023>025-281800-

NORTHERN UTAH

CITY           SKY/WX    TMP DP  RH WIND       PRES   REMARKS
BRIGHAM CITY   CLOUDY    42  31  66 CALM      30.02R
HILL AFB       CLOUDY    52  20  28 S8        30.02R
LOGAN          SUNNY     41  31  67 VRB3      29.98F
OGDEN          CLOUDY    48  26  42 S6        30.01R
PROVO AIRPORT  CLOUDY    41  30  65 CALM      30.08S
SALT LAKE CITY CLOUDY    52  21  29 SE14      29.99F
VERNAL         PTSUNNY   37  25  61 E3        30.14F
WENDOVER       CLOUDY    37  27  65 CALM      30.00F
HEBER CITY     CLOUDY    34  30  86 CALM      30.07F
WEST JORDAN    SUNNY     54  27  35 S20       30.02S

$$

UTZ012>022-026-027-281800-

SOUTHERN/CENTRAL UTAH

CITY           SKY/WX    TMP DP  RH WIND       PRES   REMARKS
BLANDING       MOSUNNY   43  23  44 S3        30.34R
BRYCE CANYON   SUNNY     44  17  33 S3        30.25F
CEDAR CITY     SUNNY     50  17  27 NE3       30.15F
DELTA          CLOUDY    50  15  25 S8        30.08S
MILFORD        MOSUNNY   49  16  26 S22       30.11R
MOAB/CYNLANDS  SUNNY     40  23  50 CALM      30.19F
PRICE          PTSUNNY   40  24  53 CALM      30.19F
ST GEORGE      CLOUDY    41  18  38 CALM      30.19S
KANAB          SUNNY     43  16  33 CALM      30.24S

$$

REGIONAL REPORTS     COLORADO/ARIZONA

CITY           SKY/WX    TMP DP  RH WIND       PRES   REMARKS
CRAIG, CO      MOSUNNY   36  26  67 CALM      30.14F
GRAND JUNCTION SUNNY     38  25  59 SE3       30.20F
RIFLE          MOSUNNY   35  27  72 CALM      30.22F
MONTROSE       SUNNY     44  22  41 CALM      30.22F
CORTEZ         SUNNY     44  19  36 CALM      30.27S
PAGE, AZ       SUNNY     45  17  32 CALM      30.22S
GRAND CANYON   SUNNY     55  10  16 SW9       30.27S
KINGMAN        SUNNY     67  14  13 SE7       30.13R
FLAGSTAFF      SUNNY     55  13  18 SW9       30.29S

$$

REGIONAL REPORTS    NEVADA/IDAHO/WYOMING

CITY           SKY/WX    TMP DP  RH WIND       PRES   REMARKS
LAS VEGAS, NV  MOSUNNY   54  22  28 S3        30.07S
ELY            PTSUNNY   43  12  28 SE3       30.14F
ELKO           PTSUNNY   35  26  69 CALM      30.02S
POCATELLO, ID  SUNNY     55  22  27 S13       29.91S
BURLEY         CLOUDY    55  21  26 SW20G25   29.89F
EVANSTON, WY   PTSUNNY   43  19  38 SW15      30.04F
ROCK SPRINGS   MOSUNNY   45  15  30 CALM      30.04F

$$


USA.gov is the U.S. government's official web portal to all federal, state and local government web resources and services.